www.pogodaiklimat.ru

Погода и климат >> Архив погоды >> Мали >> Kita


ПОГОДА в Kita

  • Прогноз погоды в Kita
  • Монитор погоды в Kita
  • Климат города

АРХИВ ПОГОДЫ в Kita

Время (UTC), дата Ветер
(напр.,м/с)
 
Видим.   Явления Облачность Т
(С)
Тd
(С)
f
(%)
Тe
(С)
Тes
(С)
Комфортность P
(гПа)
Po
(гПа)
Тmin
(С)
Tmax
(С)
R
(мм)
R24
(мм)
S
(см)
03 14.10 штиль 0 10 км 4/1 900 м
[Sc Ac lent Ci sp]
+24.5 +21.7 84 +31 +31 очень
душно
1009.6 973.1
06 14.10 штиль 0 10 км 4/0
[Ci sp]
+23.9 +21.7 88 +31 +31 очень
душно
1010.4 973.7 +23.2
09 14.10 С 2 10 км 5/0
[Ci sp]
+29.9 +25.0 75 +43 +48 опасность
перегрева
1011.6 974.5
12 14.10 штиль 0 10 км 5/3 900 м
[Sc Ci sp]
+33.9 +26.2 64 +50 +66 опасность
перегрева
1010.8 974.1
15 14.10 штиль 0 10 км 6/5 900 м
[Sc Ac lent Ci sp]
+36.3 +25.1 53 +50 +57 опасность
перегрева
1008.2 971.6
18 14.10 штиль 0 10 км в посл. час гроза 9/4 900 м
[Sc Ac As Ci sp]
+29.5 +22.6 66 +39 +39 очень
душно
1008.9 971.9 +36.6
21 14.10 ЮЗ 2 10 км 6/3 900 м
[Sc Ci sp]
+28.0 +22.2 71 +37 +37 очень
душно
1011.3 974.4
00 15.10 штиль 0 10 км 5/0
[Ci sp]
+26.0 +21.6 77 +33 +33 очень
душно
1011.9 975.1
03 15.10 штиль 0 10 км 5/0
[Ci sp]
+25.5 +22.1 81 +33 +33 очень
душно
1010.2 973.7
06 15.10 штиль 0 10 км 4/0
[Ci sp]
+24.1 +21.6 86 +31 +31 очень
душно
1011.6 974.4 +23.5
09 15.10 штиль 0 10 км 5/0
[Ci sp]
+26.5 +22.4 78 +35 +42 очень
душно
1013.1 976.0
12 15.10 штиль 0 10 км 5/0
[Ci sp]
+34.5 +24.8 57 +48 +70 опасность
перегрева
1011.6 974.9
15 15.10 СВ 2 10 км 6/3 900 м
[Sc Ci sp]
+34.9 +25.1 57 +49 +56 опасность
перегрева
1009.6 972.9
18 15.10 штиль 0 10 км {гроза} 8/1 900 м
[Sc Ac lent Ci sp]
+32.3 +24.8 65 +46 +46 опасность
перегрева
1009.9 973.1 +36.9
21 15.10 штиль 0 10 км 8/0
[Ci sp]
+28.8 +25.0 80 +42 +42 опасность
перегрева
1012.3 975.3
00 16.10 штиль 0 10 км 5/0
[Ci sp]
+26.5 +23.6 84 +36 +36 очень
душно
1012.9 976.2
03 16.10 штиль 0 10 км ясно +24.3 +22.4 89 +32 +32 очень
душно
1011.6 974.8
06 16.10 штиль 0 10 км 8/0
[Ci sp]
+23.0 +21.5 91 +31 +31 очень
душно
1013.2 976.1 +22.6
09 16.10 штиль 0 10 км 5/0
[Ci sp]
+27.3 +22.5 75 +36 +43 очень
душно
1015.1 978.0
12 16.10 ЮВ 2 10 км 5/0
[Ci sp]
+35.0 +18.3 37 +39 +55 опасность
солнечного
удара
1014.0 977.2
15 16.10 В 3 10 км 5/3 900 м
[Sc Ci sp]
+36.3 +16.7 31 +39 +45 очень
душно
1011.9 975.1
18 16.10 штиль 0 10 км 6/0
[Ci sp]
+33.5 +20.4 46 +40 +40 очень
душно
1011.9 974.9 +36.9
21 16.10 штиль 0 10 км 4/0
[Ci sp]
+29.0 +24.0 74 +40 +40 очень
душно
1014.4 977.3
00 17.10 штиль 0 10 км 4/0
[Ci sp]
+26.9 +23.6 82 +37 +37 очень
душно
1014.6 977.8
03 17.10 штиль 0 10 км 4/0
[Ci sp]
+25.0 +22.8 88 +33 +33 очень
душно
1013.8 977.0
06 17.10 штиль 0 10 км 6/0
[Ac lent Ci sp]
+24.0 +21.8 88 +31 +31 очень
душно
1013.7 976.7 +23.5
09 17.10 штиль 0 10 км 8/0
[Ci sp]
+27.7 +22.0 71 +36 +42 очень
душно
1015.1 977.9
12 17.10 З 2 10 км 8/1 900 м
[Sc Ci sp]
+34.7 +18.7 39 +39 +53 опасность
солнечного
удара
1014.0 977.2
15 17.10 штиль 0 10 км 9/1 900 м
[Sc Ci sp]
+36.5 +16.4 30 +39 +51 опасность
солнечного
удара
1011.4 974.7
18 17.10 штиль 0 10 км 8/0
[Ac lent Ci sp]
+34.0 +20.3 45 +41 +41 опасность
перегрева
1011.7 974.8 +37.5
21 17.10 штиль 0 10 км 8/0
[Ac lent Ci sp]
+28.0 +22.6 73 +37 +37 очень
душно
1013.9 976.7
00 18.10 штиль 0 10 км 4/0
[Ci sp]
+25.0 +22.2 84 +32 +32 очень
душно
1014.2 977.4
03 18.10 штиль 0 10 км 4/0
[Ci sp]
+24.2 +21.2 83 +31 +31 очень
душно
1012.8 976.0
06 18.10 штиль 0 10 км 1/0
[Ci sp]
+22.5 +20.2 87 +29 +29 очень
душно
1012.8 975.8 +22.0
09 18.10 штиль 0 10 км ясно +28.4 +21.6 67 +36 +44 очень
душно
1014.1 977.0
12 18.10 ЮВ 2 10 км 3/0
[Ci sp]
+37.3 +15.2 27 +39 +55 опасность
солнечного
удара
1012.1 975.5
15 18.10 ЮВ 2 10 км 5/3 900 м
[Sc Ci sp]
+36.7 +13.3 25 +37 +45 очень
жарко
1009.8 973.2
18 18.10 штиль 0 10 км 5/1 900 м
[Sc Ac lent Ci sp]
+35.0 +19.0 39 +40 +40 очень
душно
1010.3 973.5 +38.6
21 18.10 штиль 0 10 км 5/0
[Ac lent Ci sp]
+29.0 +21.2 63 +37 +37 очень
душно
1012.4 975.4
00 19.10 штиль 0 10 км 4/0
[Ci sp]
+25.9 +20.8 73 +32 +32 очень
душно
1012.5 975.2
03 19.10 штиль 0 10 км 4/0
[Ci sp]
+23.8 +20.3 81 +29 +29 душно 1011.3 974.6
06 19.10 штиль 0 10 км 1/0
[Ci sp]
+22.5 +19.4 83 +29 +29 очень
душно
1012.2 975.2 +21.9
09 19.10 штиль 0 10 км ясно +29.3 +20.5 59 +36 +44 очень
душно
1013.5 976.6
12 19.10 ЮЗ 2 10 км ясно +36.2 +14.4 27 +37 +55 опасность
солнечного
удара
1012.5 975.9
15 19.10 СВ 2 10 км 1/1 900 м
[Sc]
+37.5 +13.6 24 +38 +48 очень
жарко
1010.2 973.7
18 19.10 штиль 0 10 км 3/0
[Ci sp]
+34.0 +18.9 41 +39 +39 очень
душно
1010.5 973.7 +38.0
21 19.10 штиль 0 10 км ясно +27.7 +19.9 63 +34 +34 очень
душно
1011.5 974.6
00 20.10 штиль 0 10 км ясно +25.0 +18.7 68 +30 +30 душно 1011.6 974.9
03 20.10 штиль 0 10 км ясно +23.1 +18.1 73 +29 +29 очень
душно
1010.2 973.6
06 20.10 штиль 0 10 км 1/0
[Ci sp]
+21.5 +17.8 79 +26 +26 душно 1011.3 974.3 +21.1
09 20.10 штиль 0 10 км ясно +27.9 +16.7 51 +32 +39 душно 1013.3 976.2
12 20.10 ЮЗ 2 10 км 1/0
[Ci sp]
+36.0 +15.8 30 +38 +55 опасность
солнечного
удара
1011.9 975.2
15 20.10 СВ 2 10 км 3/1 900 м
[Sc Ci sp]
+37.4 +13.9 25 +38 +48 душно 1009.9 973.3
18 20.10 штиль 0 10 км 8/0
[Ci sp]
+34.4 +16.9 35 +37 +38 очень
душно
1010.5 973.6 +38.3
21 20.10 штиль 0 10 км 3/0
[Ci sp]
+28.5 +19.3 57 +34 +34 очень
душно
1012.6 975.6
00 21.10 штиль 0 10 км 3/0
[Ci sp]
+25.5 +19.5 69 +31 +31 очень
душно
1012.6 975.9

 

Местоположение метеостанции Kita (Мали): широта 13.07 долгота -9.47 высота над уровнем моря 334 м.

В архиве по умолчанию представлена погода в Kita за последнюю неделю. Архивные данные за месяц целиком и за предыдущие месяцы, начиная с января 2011 года, Вы можете получить, выбрав интересующий диапазон дат из раскрывающегося списка и нажав кнопку "Ввод!".

Внимание! Время в таблицах - всемирное. Для получения местного времени необходимо прибавить поправку, которая в Kita равна 0 ч.

Смотрите также архив погоды в соседних городах и на ближайших метеорологических станциях:

Погода в Bamako (Мали) (175 км)
Погода в Kenieba (Мали) (192 км)
Погода в Nioro Du Sahel (Мали) (241 км)
Погода в Yelimane (Мали) (257 км)
Погода в Kayes (Мали) (260 км)
Погода в Bougouni (Мали) (282 км)
Погода в Kedougou (Сенегал) (302 км)
Погода в Nara (Мали) (332 км)
Погода в Segou (Мали) (361 км)
Погода в Aioun el Atrouss (Мавритания) (404 км)

Пояснения к столбцам:

Ветер - указаны скорость ветра в м/с - средняя за 10 мин, порывы в срок и между сроками (в фигурных скобках) и направление, откуда дует ветер: С - северный, СВ - северо-восточный, В - восточный, ЮВ - юго-восточный, Ю - южный, ЮЗ - юго-западный, З - западный, СЗ - северо-западный.
Видимость - горизонтальная дальность видимости в метрах или километрах. При видимости от 1 до 10 км при отсутствии осадков обычно наблюдается дымка, при ухудшении видимости до 1 км и менее - туман. В сухую погоду видимость может ухудшаться дымом, пылью или мглою.
Явления - указаны атмосферные явления, наблюдавшиеся в срок или в последний час перед сроком; фигурными скобками обозначены явления, наблюдавшиеся между сроками (за 1-3 часа до срока); квадратными скобками обозначены град или гололедные отложения с указанием их диаметра в мм.
Облачность - указаны через наклонную черту общая и нижняя облачность в баллах и высота нижней границы облаков в метрах; квадратными скобками обозначены формы облаков: Ci - перистые, Cs - перисто-слоистые, Cc - перисто-кучевые, Ac - высококучевые, As - высокослоистые, Sc - слоисто-кучевые, Ns - слоисто-дождевые, Cu - кучевые, Cb - кучево-дождевые. Подробнее классификацию облаков см. в Атласе облаков (PDF).
T - Температура воздуха - температура, измеренная на высоте 2 м над землей.
Td - Температура точки росы - температура, при понижении до которой содержащийся в воздухе водяной пар достигнет насыщения.
f - Относительная влажность воздуха - влажноcть воздуха, измеренная на высоте 2 м над землей.
Te - Эффективная температура - температура, которую ощущает одетый по сезону человек в тени. Характеристика душности погоды. При расчете учитывается влияние влажности воздуха и скорости ветра на теплоощущения человека.
Tes - Эффективная температура на солнце - температура, которую ощущает человек, с поправкой на солнечный нагрев. Характеристика знойности погоды. Зависит от высоты солнца над горизонтом, облачности и скорости ветра. Ночью, в пасмурную погоду, а также при ветре 12 м/с и более поправка равна нулю.
P - Атмосферное давление - приведенное к уровню моря атмосферное давление.
Po - Атмосферное давление - измеренное на уровне метеостанции атмосферное давление.
Tmin - Минимальная температура - минимум температуры воздуха на высоте 2 м над землей.
Tmax - Максимальная температура - максимум температуры воздуха на высоте 2 м над землей.
R - Количество осадков - Количество выпавших осадков за период времени, мм. При наведении курсора мыши на число - период времени, за который выпало указанное количество осадков.
R24 - Количество осадков - Количество выпавших осадков за 24 часа, мм.
S - Снежный покров - Высота снежного покрова, см. При наведении курсора мыши на число - состояние снежного покрова и степень покрытия местности в баллах.